Location: Beuerbach
(48.1459°N, 10.9174°E)
Time: 04:04:30
(UTC+00:00)

Cosmos 1733 Rocket - Pass Details

Date: 23 May 2024
Orbit: 600 x 624 km, 82.5° (Epoch: 13 June)

Event Time Altitude Azimuth Distance (km) Brightness Sun altitude
Rises 00:24:47 0° 344° (NNW) 2,865 7.4 -19.4°
Reaches altitude 10° 00:27:05 10° 337° (NNW) 1,959 6.3 -19.2°
Maximum altitude 00:31:09 42° 268° (W) 877 3.6 -19.0°
Enters shadow 00:31:59 37° 238° (WSW) 947 3.6 -19.0°
